Find Local Weather

World > North America > United States > North Carolina

Raleigh, North Carolina Regional Weather

Lat: 35.82N, Lon: 78.66W
Wx Zone: NCZ041
Warning FLW WEATHER ALERT - HARD FROST ADVISORY (More Info. Click Here) Warning
Feedback
Expires:201804200000;;207092
ASUS42 KRAH 192310
RWRRAH
NORTH CAROLINA WEATHER ROUNDUP
NATIONAL WEATHER SERVICE RALEIGH NC
700 PM EDT THU APR 19 2018

NOTE: "FAIR" INDICATES FEW OR NO CLOUDS BELOW 12,000 FEET WITH NO
SIGNIFICANT WEATHER AND/OR OBSTRUCTIONS TO VISIBILITY.


NCZ021-022-025-041-071-084-088-200000-
CENTRAL NORTH CAROLINA
  
CITY           SKY/WX    TMP DP  RH WIND       PRES   REMARKS
CHARLOTTE      FAIR      60  32  34 N15G25    30.08R                  
GREENSBORO     FAIR      54  29  38 N15G25    30.09R                  
WINSTON-SALEM  FAIR      52  28  39 NW21G29   30.13R                  
RALEIGH-DURHAM FAIR      57  32  38 N14G28    30.04R                  
FORT BRAGG     FAIR      64  31  29 NW15G22   29.99R                  
FAYETTEVILLE   FAIR      67  34  29 NW21G29   29.98R                  
BURLINGTON     FAIR      55  28  35 NW17G33   30.07R                  
LAURINBURG     FAIR      66  36  32 N21G28    29.99R                  
$$
 

SKY/WX - Weather  TMP - Temperature  DP - Dewpoint  RH - Relative Humidity
WIND - Wind Direction/Speed PRES - Barometric Pressure